ProjectID,Date,Electric Generation,Electric Utility Import,Facility Electric Load
,YYYY-MM-DD,kW,kW,kW
180,2014-02-10,0.4166666666666667,,0.4166666666666667
180,2014-02-11,0.0,,0.0
180,2014-02-12,0.0,,0.0
180,2014-02-13,0.0,,0.0
180,2014-02-14,0.0,,0.0
180,2014-02-15,0.0,,0.0
180,2014-02-16,0.0,,0.0
180,2014-02-17,0.0,,0.0
180,2014-02-18,0.0,,0.0
180,2014-02-19,0.0,,0.0
180,2014-02-20,0.0,,0.0
180,2014-02-21,0.0,,0.0
180,2014-02-22,2.9166666666666665,,2.9166666666666665
180,2014-02-23,9.833333333333334,,9.833333333333334
180,2014-02-24,61.791666666666664,,61.791666666666664
180,2014-02-25,50.333333333333336,,50.333333333333336
180,2014-02-26,61.375,,61.375
180,2014-02-27,81.375,,81.375
180,2014-02-28,123.125,,123.125
180,2014-03-01,102.41666666666667,,102.41666666666667
180,2014-03-02,26.791666666666668,,26.791666666666668
180,2014-03-03,45.291666666666664,,45.291666666666664
180,2014-03-04,101.875,,101.875
180,2014-03-05,66.29166666666667,,66.29166666666667
180,2014-03-06,136.83333333333334,,136.83333333333334
180,2014-03-07,66.25,,66.25
180,2014-03-08,129.66666666666666,,129.66666666666666
180,2014-03-09,154.625,,154.625
180,2014-03-10,74.33333333333333,,74.33333333333333
180,2014-03-11,141.16666666666666,,141.16666666666666
180,2014-03-12,40.625,,40.625
180,2014-03-13,144.41666666666666,,144.41666666666666
180,2014-03-14,105.79166666666667,,105.79166666666667
180,2014-03-15,136.79166666666666,,136.79166666666666
180,2014-03-16,137.5,,137.5
180,2014-03-17,95.08333333333333,,95.08333333333333
180,2014-03-18,168.5,,168.5
180,2014-03-19,56.916666666666664,,56.916666666666664
180,2014-03-20,111.58333333333333,,111.58333333333333
180,2014-03-21,160.0,,160.0
180,2014-03-22,121.54166666666667,,121.54166666666667
180,2014-03-23,70.54166666666667,,70.54166666666667
180,2014-03-24,168.70833333333334,,168.70833333333334
180,2014-03-25,113.79166666666667,,113.79166666666667
180,2014-03-26,170.125,,170.125
180,2014-03-27,161.0,,161.0
180,2014-03-28,27.583333333333332,,27.583333333333332
180,2014-03-29,31.083333333333332,,31.083333333333332
180,2014-03-30,53.458333333333336,,53.458333333333336
180,2014-03-31,133.75,,133.75
180,2014-04-01,157.0,,157.0
180,2014-04-02,65.95833333333333,,65.95833333333333
180,2014-04-03,163.45833333333334,,163.45833333333334
180,2014-04-04,25.833333333333332,,25.833333333333332
180,2014-04-05,114.16666666666667,,114.16666666666667
180,2014-04-06,143.45833333333334,,143.45833333333334
180,2014-04-07,46.875,,46.875
180,2014-04-08,69.375,,69.375
180,2014-04-09,138.875,,138.875
180,2014-04-10,161.875,,161.875
180,2014-04-11,102.08333333333333,,102.08333333333333
180,2014-04-12,198.41666666666666,,198.41666666666666
180,2014-04-13,151.75,,151.75
180,2014-04-14,135.04166666666666,,135.04166666666666
180,2014-04-15,18.416666666666668,,18.416666666666668
180,2014-04-16,195.91666666666666,,195.91666666666666
180,2014-04-17,210.75,,210.75
180,2014-04-18,146.25,,146.25
180,2014-04-19,207.625,,207.625
180,2014-04-20,207.41666666666666,,207.41666666666666
180,2014-04-21,224.04166666666666,,224.04166666666666
180,2014-04-22,140.33333333333334,,140.33333333333334
180,2014-04-23,148.79166666666666,,148.79166666666666
180,2014-04-24,242.04166666666666,,242.04166666666666
180,2014-04-25,219.16666666666666,,219.16666666666666
180,2014-04-26,156.625,,156.625
180,2014-04-27,150.41666666666666,,150.41666666666666
180,2014-04-28,226.875,,226.875
180,2014-04-29,46.25,,46.25
180,2014-04-30,27.458333333333332,,27.458333333333332
180,2014-05-01,150.20833333333334,,150.20833333333334
180,2014-05-02,145.41666666666666,,145.41666666666666
180,2014-05-03,149.91666666666666,,149.91666666666666
180,2014-05-04,137.625,,137.625
180,2014-05-05,213.25,,213.25
180,2014-05-06,161.79166666666666,,161.79166666666666
180,2014-05-07,213.83333333333334,,213.83333333333334
180,2014-05-08,34.625,,34.625
180,2014-05-09,39.333333333333336,,39.333333333333336
180,2014-05-10,137.45833333333334,,137.45833333333334
180,2014-05-11,179.33333333333334,,179.33333333333334
180,2014-05-12,41.583333333333336,,41.583333333333336
180,2014-05-13,200.0,,200.0
180,2014-05-14,175.83333333333334,,175.83333333333334
180,2014-05-15,37.125,,37.125
180,2014-05-16,33.541666666666664,,33.541666666666664
180,2014-05-17,221.75,,221.75
180,2014-05-18,177.375,,177.375
180,2014-05-19,194.45833333333334,,194.45833333333334
180,2014-05-20,179.20833333333334,,179.20833333333334
180,2014-05-21,0.0,,0.0
180,2014-05-22,25.416666666666668,,25.416666666666668
180,2014-05-23,102.33333333333333,,102.33333333333333
180,2014-05-24,136.54166666666666,,136.54166666666666
180,2014-05-25,212.79166666666666,,212.79166666666666
180,2014-05-26,196.75,,196.75
180,2014-05-27,152.75,,152.75
180,2014-05-28,44.25,,44.25
180,2014-05-29,233.29166666666666,,233.29166666666666
180,2014-05-30,192.91666666666666,,192.91666666666666
180,2014-05-31,202.79166666666666,,202.79166666666666
180,2014-06-01,237.79166666666666,,237.79166666666666
180,2014-06-02,235.08333333333334,,235.08333333333334
180,2014-06-03,185.125,,185.125
180,2014-06-04,192.5,,192.5
180,2014-06-05,127.0,,127.0
180,2014-06-06,190.33333333333334,,190.33333333333334
180,2014-06-07,234.70833333333334,,234.70833333333334
180,2014-06-08,217.375,,217.375
180,2014-06-09,37.791666666666664,,37.791666666666664
180,2014-06-10,101.25,,101.25
180,2014-06-11,73.75,,73.75
180,2014-06-12,61.25,,61.25
180,2014-06-13,97.45833333333333,,97.45833333333333
180,2014-06-14,205.95833333333334,,205.95833333333334
180,2014-06-15,240.83333333333334,,240.83333333333334
180,2014-06-16,222.91666666666666,,222.91666666666666
180,2014-06-17,195.25,,195.25
180,2014-06-18,232.04166666666666,,232.04166666666666
180,2014-06-19,95.20833333333333,,95.20833333333333
180,2014-06-20,226.70833333333334,,226.70833333333334
180,2014-06-21,226.875,,226.875
180,2014-06-22,202.625,,202.625
180,2014-06-23,177.04166666666666,,177.04166666666666
180,2014-06-24,182.5,,182.5
180,2014-06-25,161.5,,161.5
180,2014-06-26,151.95833333333334,,151.95833333333334
180,2014-06-27,217.125,,217.125
180,2014-06-28,221.83333333333334,,221.83333333333334
180,2014-06-29,206.375,,206.375
180,2014-06-30,189.29166666666666,,189.29166666666666
180,2014-07-01,162.83333333333334,,162.83333333333334
180,2014-07-02,181.5,,181.5
180,2014-07-03,147.08333333333334,,147.08333333333334
180,2014-07-04,83.5,,83.5
180,2014-07-05,237.5,,237.5
180,2014-07-06,235.91666666666666,,235.91666666666666
180,2014-07-07,209.58333333333334,,209.58333333333334
180,2014-07-08,188.45833333333334,,188.45833333333334
180,2014-07-09,194.0,,194.0
180,2014-07-10,195.04166666666666,,195.04166666666666
180,2014-07-11,221.54166666666666,,221.54166666666666
180,2014-07-12,200.75,,200.75
180,2014-07-13,142.125,,142.125
180,2014-07-14,103.125,,103.125
180,2014-07-15,98.41666666666667,,98.41666666666667
180,2014-07-16,150.875,,150.875
180,2014-07-17,165.04166666666666,,165.04166666666666
180,2014-07-18,216.41666666666666,,216.41666666666666
180,2014-07-19,127.91666666666667,,127.91666666666667
180,2014-07-20,198.45833333333334,,198.45833333333334
180,2014-07-21,189.54166666666666,,189.54166666666666
180,2014-07-22,205.08333333333334,,205.08333333333334
180,2014-07-23,174.29166666666666,,174.29166666666666
180,2014-07-24,157.54166666666666,,157.54166666666666
180,2014-07-25,183.0,,183.0
180,2014-07-26,87.66666666666667,,87.66666666666667
180,2014-07-27,122.58333333333333,,122.58333333333333
180,2014-07-28,131.83333333333334,,131.83333333333334
180,2014-07-29,156.54166666666666,,156.54166666666666
180,2014-07-30,163.25,,163.25
180,2014-07-31,130.375,,130.375
180,2014-08-01,93.33333333333333,,93.33333333333333
180,2014-08-02,106.95833333333333,,106.95833333333333
180,2014-08-03,101.45833333333333,,101.45833333333333
180,2014-08-04,153.625,,153.625
180,2014-08-05,169.79166666666666,,169.79166666666666
180,2014-08-06,159.75,,159.75
180,2014-08-07,162.45833333333334,,162.45833333333334
180,2014-08-08,191.29166666666666,,191.29166666666666
180,2014-08-09,215.375,,215.375
180,2014-08-10,203.375,,203.375
180,2014-08-11,185.70833333333334,,185.70833333333334
180,2014-08-12,64.83333333333333,,64.83333333333333
180,2014-08-13,110.70833333333333,,110.70833333333333
180,2014-08-14,182.79166666666666,,182.79166666666666
180,2014-08-15,138.91666666666666,,138.91666666666666
180,2014-08-16,175.91666666666666,,175.91666666666666
180,2014-08-17,141.70833333333334,,141.70833333333334
180,2014-08-18,185.83333333333334,,185.83333333333334
180,2014-08-19,194.95833333333334,,194.95833333333334
180,2014-08-20,134.54166666666666,,134.54166666666666
180,2014-08-21,113.16666666666667,,113.16666666666667
180,2014-08-22,84.58333333333333,,84.58333333333333
180,2014-08-23,103.20833333333333,,103.20833333333333
180,2014-08-24,143.70833333333334,,143.70833333333334
180,2014-08-25,177.04166666666666,,177.04166666666666
180,2014-08-26,175.33333333333334,,175.33333333333334
180,2014-08-27,166.41666666666666,,166.41666666666666
180,2014-08-28,177.16666666666666,,177.16666666666666
180,2014-08-29,188.16666666666666,,188.16666666666666
180,2014-08-30,136.45833333333334,,136.45833333333334
180,2014-08-31,74.25,,74.25
180,2014-09-01,104.25,,104.25
180,2014-09-02,144.58333333333334,,144.58333333333334
180,2014-09-03,156.16666666666666,,156.16666666666666
180,2014-09-04,160.91666666666666,,160.91666666666666
180,2014-09-05,114.91666666666667,,114.91666666666667
180,2014-09-06,125.58333333333333,,125.58333333333333
180,2014-09-07,151.83333333333334,,151.83333333333334
180,2014-09-08,126.95833333333333,,126.95833333333333
180,2014-09-09,74.375,,74.375
180,2014-09-10,145.875,,145.875
180,2014-09-11,50.416666666666664,,50.416666666666664
180,2014-09-12,162.375,,162.375
180,2014-09-13,40.333333333333336,,40.333333333333336
180,2014-09-14,165.33333333333334,,165.33333333333334
180,2014-09-15,167.375,,167.375
180,2014-09-16,70.33333333333333,,70.33333333333333
180,2014-09-17,153.25,,153.25
180,2014-09-18,141.66666666666666,,141.66666666666666
180,2014-09-19,158.33333333333334,,158.33333333333334
180,2014-09-20,116.75,,116.75
180,2014-09-21,48.0,,48.0
180,2014-09-22,146.04166666666666,,146.04166666666666
180,2014-09-23,160.125,,160.125
180,2014-09-24,118.125,,118.125
180,2014-09-25,41.541666666666664,,41.541666666666664
180,2014-09-26,154.95833333333334,,154.95833333333334
180,2014-09-27,150.79166666666666,,150.79166666666666
180,2014-09-28,135.875,,135.875
180,2014-09-29,66.0,,66.0
180,2014-09-30,61.375,,61.375
180,2014-10-01,25.25,,25.25
180,2014-10-02,70.16666666666667,,70.16666666666667
180,2014-10-03,161.66666666666666,,161.66666666666666
180,2014-10-04,31.958333333333332,,31.958333333333332
180,2014-10-05,168.45833333333334,,168.45833333333334
180,2014-10-06,154.83333333333334,,154.83333333333334
180,2014-10-07,106.33333333333333,,106.33333333333333
180,2014-10-08,153.91666666666666,,153.91666666666666
180,2014-10-09,114.83333333333333,,114.83333333333333
180,2014-10-10,94.33333333333333,,94.33333333333333
180,2014-10-11,28.5,,28.5
180,2014-10-12,155.83333333333334,,155.83333333333334
180,2014-10-13,39.416666666666664,,39.416666666666664
180,2014-10-14,99.20833333333333,,99.20833333333333
180,2014-10-15,65.875,,65.875
180,2014-10-16,63.291666666666664,,63.291666666666664
180,2014-10-17,129.33333333333334,,129.33333333333334
180,2014-10-18,60.666666666666664,,60.666666666666664
180,2014-10-19,118.45833333333333,,118.45833333333333
180,2014-10-20,96.75,,96.75
180,2014-10-21,53.458333333333336,,53.458333333333336
180,2014-10-22,23.083333333333332,,23.083333333333332
180,2014-10-23,27.208333333333332,,27.208333333333332
180,2014-10-24,67.66666666666667,,67.66666666666667
180,2014-10-25,128.375,,128.375
180,2014-10-26,57.5,,57.5
180,2014-10-27,129.79166666666666,,129.79166666666666
180,2014-10-28,88.95833333333333,,88.95833333333333
180,2014-10-29,52.583333333333336,,52.583333333333336
180,2014-10-30,106.16666666666667,,106.16666666666667
180,2014-10-31,54.75,,54.75
180,2014-11-01,11.875,,11.875
180,2014-11-02,87.33333333333333,,87.33333333333333
180,2014-11-03,122.04166666666667,,122.04166666666667
180,2014-11-04,105.79166666666667,,105.79166666666667
180,2014-11-05,31.166666666666668,,31.166666666666668
180,2014-11-06,7.875,,7.875
180,2014-11-07,69.125,,69.125
180,2014-11-08,106.5,,106.5
180,2014-11-09,83.33333333333333,,83.33333333333333
180,2014-11-10,105.66666666666667,,105.66666666666667
180,2014-11-11,62.125,,62.125
180,2014-11-12,38.708333333333336,,38.708333333333336
180,2014-11-13,70.0,,70.0
180,2014-11-14,114.41666666666667,,114.41666666666667
180,2014-11-15,112.20833333333333,,112.20833333333333
180,2014-11-16,23.208333333333332,,23.208333333333332
180,2014-11-17,6.458333333333333,,6.458333333333333
180,2014-11-18,111.95833333333333,,111.95833333333333
180,2014-11-19,107.54166666666667,,107.54166666666667
180,2014-11-20,86.41666666666667,,86.41666666666667
180,2014-11-21,103.83333333333333,,103.83333333333333
180,2014-11-22,91.75,,91.75
180,2014-11-23,63.166666666666664,,63.166666666666664
180,2014-11-24,41.041666666666664,,41.041666666666664
180,2014-11-25,31.041666666666668,,31.041666666666668
180,2014-11-26,0.3333333333333333,,0.3333333333333333
180,2014-11-27,2.375,,2.375
180,2014-11-28,14.25,,14.25
180,2014-11-29,11.833333333333334,,11.833333333333334
180,2014-11-30,40.458333333333336,,40.458333333333336
180,2014-12-01,43.458333333333336,,43.458333333333336
180,2014-12-02,20.0,,20.0
180,2014-12-03,10.75,,10.75
180,2014-12-04,90.33333333333333,,90.33333333333333
180,2014-12-05,23.958333333333332,,23.958333333333332
180,2014-12-06,7.416666666666667,,7.416666666666667
180,2014-12-07,88.91666666666667,,88.91666666666667
180,2014-12-08,22.666666666666668,,22.666666666666668
180,2014-12-09,2.9583333333333335,,2.9583333333333335
180,2014-12-10,15.208333333333334,,15.208333333333334
180,2014-12-11,40.25,,40.25
180,2014-12-12,18.833333333333332,,18.833333333333332
180,2014-12-13,22.583333333333332,,22.583333333333332
180,2014-12-14,8.666666666666666,,8.666666666666666
180,2014-12-15,23.0,,23.0
180,2014-12-16,4.75,,4.75
180,2014-12-17,13.666666666666666,,13.666666666666666
180,2014-12-18,18.375,,18.375
180,2014-12-19,16.083333333333332,,16.083333333333332
180,2014-12-20,7.25,,7.25
180,2014-12-21,22.625,,22.625
180,2014-12-22,18.666666666666668,,18.666666666666668
180,2014-12-23,12.333333333333334,,12.333333333333334
180,2014-12-24,6.166666666666667,,6.166666666666667
180,2014-12-25,41.5,,41.5
180,2014-12-26,86.20833333333333,,86.20833333333333
180,2014-12-27,80.95833333333333,,80.95833333333333
180,2014-12-28,21.916666666666668,,21.916666666666668
180,2014-12-29,83.83333333333333,,83.83333333333333
180,2014-12-30,44.708333333333336,,44.708333333333336
180,2014-12-31,66.95833333333333,,66.95833333333333
180,2015-01-01,89.41666666666667,,89.41666666666667
180,2015-01-02,59.666666666666664,,59.666666666666664
180,2015-01-03,18.375,,18.375
180,2015-01-04,9.833333333333334,,9.833333333333334
180,2015-01-05,77.20833333333333,,77.20833333333333
180,2015-01-06,9.208333333333334,,9.208333333333334
180,2015-01-07,34.416666666666664,,34.416666666666664
180,2015-01-08,96.04166666666667,,96.04166666666667
180,2015-01-09,26.208333333333332,,26.208333333333332
180,2015-01-10,100.25,,100.25
180,2015-01-11,36.0,,36.0
180,2015-01-12,6.791666666666667,,6.791666666666667
180,2015-01-13,104.54166666666667,,104.54166666666667
180,2015-01-14,57.0,,57.0
180,2015-01-15,69.33333333333333,,69.33333333333333
180,2015-01-16,82.45833333333333,,82.45833333333333
180,2015-01-17,102.41666666666667,,102.41666666666667
180,2015-01-18,4.208333333333333,,4.208333333333333
180,2015-01-19,46.375,,46.375
180,2015-01-20,58.833333333333336,,58.833333333333336
180,2015-01-21,56.958333333333336,,56.958333333333336
180,2015-01-22,78.04166666666667,,78.04166666666667
180,2015-01-23,107.375,,107.375
180,2015-01-24,0.0,,0.0
180,2015-01-25,6.291666666666667,,6.291666666666667
180,2015-01-26,1.1666666666666667,,1.1666666666666667
180,2015-01-27,2.375,,2.375
180,2015-01-28,8.041666666666666,,8.041666666666666
180,2015-01-29,8.291666666666666,,8.291666666666666
180,2015-01-30,1.9583333333333333,,1.9583333333333333
180,2015-01-31,10.791666666666666,,10.791666666666666
180,2015-02-01,9.458333333333334,,9.458333333333334
180,2015-02-02,0.0,,0.0
180,2015-02-03,0.0,,0.0
180,2015-02-04,0.0,,0.0
180,2015-02-05,0.25,,0.25
180,2015-02-06,0.3333333333333333,,0.3333333333333333
180,2015-02-07,0.041666666666666664,,0.041666666666666664
180,2015-02-08,0.0,,0.0
180,2015-02-09,0.0,,0.0
180,2015-02-10,0.75,,0.75
180,2015-02-11,2.3333333333333335,,2.3333333333333335
180,2015-02-12,0.5,,0.5
180,2015-02-13,3.0833333333333335,,3.0833333333333335
180,2015-02-14,0.041666666666666664,,0.041666666666666664
180,2015-02-15,2.25,,2.25
180,2015-02-16,2.8333333333333335,,2.8333333333333335
180,2015-02-17,1.9166666666666667,,1.9166666666666667
180,2015-02-18,3.125,,3.125
180,2015-02-19,2.2916666666666665,,2.2916666666666665
180,2015-02-20,4.333333333333333,,4.333333333333333
180,2015-02-21,1.0,,1.0
180,2015-02-22,0.16666666666666666,,0.16666666666666666
180,2015-02-23,1.5833333333333333,,1.5833333333333333
180,2015-02-24,2.7916666666666665,,2.7916666666666665
180,2015-02-25,3.4166666666666665,,3.4166666666666665
180,2015-02-26,1.25,,1.25
180,2015-02-27,4.416666666666667,,4.416666666666667
180,2015-02-28,4.791666666666667,,4.791666666666667
180,2015-03-01,0.5416666666666666,,0.5416666666666666
180,2015-03-02,0.625,,0.625
180,2015-03-03,0.5,,0.5
180,2015-03-04,0.3333333333333333,,0.3333333333333333
180,2015-03-05,0.0,,0.0
180,2015-03-06,0.7083333333333334,,0.7083333333333334
180,2015-03-07,1.8333333333333333,,1.8333333333333333
180,2015-03-08,4.25,,4.25
180,2015-03-09,33.208333333333336,,33.208333333333336
180,2015-03-10,45.375,,45.375
180,2015-03-11,126.91666666666667,,126.91666666666667
180,2015-03-12,188.83333333333334,,188.83333333333334
180,2015-03-13,166.29166666666666,,166.29166666666666
180,2015-03-14,24.083333333333332,,24.083333333333332
180,2015-03-15,47.916666666666664,,47.916666666666664
180,2015-03-16,101.83333333333333,,101.83333333333333
180,2015-03-17,88.625,,88.625
180,2015-03-18,153.08333333333334,,153.08333333333334
180,2015-03-19,197.625,,197.625
180,2015-03-20,32.083333333333336,,32.083333333333336
180,2015-03-21,31.541666666666668,,31.541666666666668
180,2015-03-22,189.125,,189.125
180,2015-03-23,204.75,,204.75
180,2015-03-24,193.58333333333334,,193.58333333333334
180,2015-03-25,114.875,,114.875
180,2015-03-26,29.25,,29.25
180,2015-03-27,58.333333333333336,,58.333333333333336
180,2015-03-28,53.5,,53.5
180,2015-03-29,209.54166666666666,,209.54166666666666
180,2015-03-30,95.375,,95.375
180,2015-03-31,81.66666666666667,,81.66666666666667
180,2015-04-01,187.70833333333334,,187.70833333333334
180,2015-04-02,193.375,,193.375
180,2015-04-03,36.125,,36.125
180,2015-04-04,198.66666666666666,,198.66666666666666
180,2015-04-05,118.83333333333333,,118.83333333333333
180,2015-04-06,189.20833333333334,,189.20833333333334
180,2015-04-07,37.416666666666664,,37.416666666666664
180,2015-04-08,39.916666666666664,,39.916666666666664
180,2015-04-09,35.5,,35.5
180,2015-04-10,48.791666666666664,,48.791666666666664
180,2015-04-11,202.54166666666666,,202.54166666666666
180,2015-04-12,209.875,,209.875
180,2015-04-13,178.75,,178.75
180,2015-04-14,78.79166666666667,,78.79166666666667
180,2015-04-15,180.70833333333334,,180.70833333333334
180,2015-04-16,202.45833333333334,,202.45833333333334
180,2015-04-17,97.58333333333333,,97.58333333333333
180,2015-04-18,204.04166666666666,,204.04166666666666
180,2015-04-19,198.95833333333334,,198.95833333333334
180,2015-04-20,32.5,,32.5
180,2015-04-21,153.58333333333334,,153.58333333333334
180,2015-04-22,147.29166666666666,,147.29166666666666
180,2015-04-23,143.75,,143.75
180,2015-04-24,130.16666666666666,,130.16666666666666
180,2015-04-25,224.625,,224.625
180,2015-04-26,157.20833333333334,,157.20833333333334
180,2015-04-27,136.79166666666666,,136.79166666666666
180,2015-04-28,219.83333333333334,,219.83333333333334
180,2015-04-29,182.66666666666666,,182.66666666666666
180,2015-04-30,209.29166666666666,,209.29166666666666
180,2015-05-01,168.625,,168.625
180,2015-05-02,216.125,,216.125
180,2015-05-03,193.45833333333334,,193.45833333333334
180,2015-05-04,191.20833333333334,,191.20833333333334
180,2015-05-05,142.20833333333334,,142.20833333333334
180,2015-05-06,81.70833333333333,,81.70833333333333
180,2015-05-07,206.54166666666666,,206.54166666666666
180,2015-05-08,198.91666666666666,,198.91666666666666
180,2015-05-09,112.75,,112.75
180,2015-05-10,152.41666666666666,,152.41666666666666
180,2015-05-11,151.25,,151.25
180,2015-05-12,152.0,,152.0
180,2015-05-13,171.41666666666666,,171.41666666666666
180,2015-05-14,218.70833333333334,,218.70833333333334
180,2015-05-15,166.04166666666666,,166.04166666666666
180,2015-05-16,114.16666666666667,,114.16666666666667
180,2015-05-17,148.83333333333334,,148.83333333333334
180,2015-05-18,58.541666666666664,,58.541666666666664
180,2015-05-19,117.25,,117.25
180,2015-05-20,187.66666666666666,,187.66666666666666
180,2015-05-21,136.66666666666666,,136.66666666666666
180,2015-05-22,182.54166666666666,,182.54166666666666
180,2015-05-23,233.04166666666666,,233.04166666666666
180,2015-05-24,194.125,,194.125
180,2015-05-25,190.91666666666666,,190.91666666666666
180,2015-05-26,195.875,,195.875
180,2015-05-27,119.375,,119.375
180,2015-05-28,144.83333333333334,,144.83333333333334
180,2015-05-29,212.16666666666666,,212.16666666666666
180,2015-05-30,176.75,,176.75
180,2015-05-31,86.70833333333333,,86.70833333333333
180,2015-06-01,31.708333333333332,,31.708333333333332
180,2015-06-02,38.916666666666664,,38.916666666666664
180,2015-06-03,209.29166666666666,,209.29166666666666
180,2015-06-04,163.08333333333334,,163.08333333333334
180,2015-06-05,117.0,,117.0
180,2015-06-06,162.625,,162.625
180,2015-06-07,222.375,,222.375
180,2015-06-08,159.83333333333334,,159.83333333333334
180,2015-06-09,121.75,,121.75
180,2015-06-10,208.83333333333334,,208.83333333333334
180,2015-06-11,148.20833333333334,,148.20833333333334
180,2015-06-12,183.75,,183.75
180,2015-06-13,200.70833333333334,,200.70833333333334
180,2015-06-14,202.91666666666666,,202.91666666666666
180,2015-06-15,71.29166666666667,,71.29166666666667
180,2015-06-16,85.20833333333333,,85.20833333333333
180,2015-06-17,171.66666666666666,,171.66666666666666
180,2015-06-18,72.20833333333333,,72.20833333333333
180,2015-06-19,147.95833333333334,,147.95833333333334
180,2015-06-20,45.333333333333336,,45.333333333333336
180,2015-06-21,144.875,,144.875
180,2015-06-22,213.70833333333334,,213.70833333333334
180,2015-06-23,124.58333333333333,,124.58333333333333
180,2015-06-24,220.54166666666666,,220.54166666666666
180,2015-06-25,173.79166666666666,,173.79166666666666
180,2015-06-26,185.95833333333334,,185.95833333333334
180,2015-06-27,50.833333333333336,,50.833333333333336
180,2015-06-28,71.83333333333333,,71.83333333333333
180,2015-06-29,168.29166666666666,,168.29166666666666
180,2015-06-30,166.91666666666666,,166.91666666666666
180,2015-07-01,165.95833333333334,,165.95833333333334
180,2015-07-02,164.95833333333334,,164.95833333333334
180,2015-07-03,216.125,,216.125
180,2015-07-04,107.58333333333333,,107.58333333333333
180,2015-07-05,193.79166666666666,,193.79166666666666
180,2015-07-06,138.5,,138.5
180,2015-07-07,126.75,,126.75
180,2015-07-08,99.70833333333333,,99.70833333333333
180,2015-07-09,80.875,,80.875
180,2015-07-10,195.54166666666666,,195.54166666666666